INSAT-3DS

Last updated on Mon Oct 14 2024 00:02:17 GMT+0000 (Coordinated Universal Time)

1 58990U 24033A 24287.54354837 -.00000158 00000+0 00000+0 0 9998 2 58990 0.0403 69.5438 0001543 131.6447 99.1950 1.00272418 40938
UTC large
Height (km)
Speed (km/s)
/
Latitude / Longitude
Inclination (degrees)
Orbital Period (minutes)
Azimuth
Elevation
Range (km)
Doppler Factor

Next 0 passes for location: London (51.5072 / 0.1276)

Sorry there are no passes over London.